User: anonymous   Login
Location: Unspecified
(0.0000°N, 0.0000°E)
Time: 07:23:21
(UTC+00:00)
Language:

WGS 7 (USA 263) - Orbit

View from above orbital plane
View from above orbital plane
View from above satellite
View from above satellite

Ground track
Ground track

The orbit data is extracted from the following two-line orbital elements,

1 40746U 15036A   17284.82712481 0.00000000  00000-0  00000-0 0    04
2 40746   0.0140 133.2439 0003453 147.2226 212.8147  1.00270000    07
Epoch (UTC): 11 October 2017 19:51:03
Eccentricity: 0.0003453
inclination: 0.0140°
perigee height: 35772 km
apogee height: 35801 km
right ascension of ascending node: 133.2439°
argument of perigee: 147.2226°
revolutions per day: 1.00270000
mean anomaly at epoch: 212.8147°
orbit number at epoch: 0

The dashed part of the orbit path shows where the satellite is in the earth's shadow,  

DLR